Home > Weather > Molepolole > Past weeks

Flag for Botswana Past Weather in Molepolole, Botswana — Yesterday and Last 2 Weeks

Now
39 °F

Clear.


Feels Like: 36 °F
Forecast: 32 / 66 °F
Wind: 5 mph from West

Location: Seretse Khama International Airport

Current Time: Jul 27, 2016 at 11:26:27 PM

Latest Report: Jul 27, 2016 at 11:00 PM


Visibility: 10 mi

Pressure: 30.15 "Hg (26.18 "Hg at 1145m altitude)

Humidity: 36%

Dew Point: 14 °F

Location of MolepololeLocation

Past Weather in Molepolole — Graph

°F

Molepolole Temperature Yesterday

Maximum temperature yesterday: 72 °F (at 4:00 PM)
Minimum temperature yesterday: 46 °F (at 7:00 AM)
Average temperature yesterday: 57 °F

High & Low Weather Summary for the Past Weeks

 TemperatureHumidityPressure
High81 °F (Jul 22, 2:00 PM)81% (Jul 13, 5:00 AM)30.48 "Hg (Jul 13, 5:00 AM)
Low30 °F (Jul 27, 6:00 AM)8% (Jul 27, 5:10 PM)29.92 "Hg (Jul 25, 4:00 PM)
Average57 °F40%30.22 "Hg
* Reported Jul 12 10:00 PM — Jul 27 10:00 PM, Molepolole, Weather by CustomWeather, © 2016

Note: Actual official high and low records may vary slightly from our data, if they occured in-between our weather recording intervals... More about our weather records

Advertising

Molepolole Weather History for the Previous 24 Hours

Scroll right to see more
 ConditionsComfort  
Time TempWeatherWind HumidityBarometerVisibility
10:00 PM
Wed, Jul 27
45 °FClear.2 mph27%30.12 "Hg10 mi
9:00 PM41 °FClear.3 mph28%30.12 "Hg10 mi
8:00 PM48 °FClear.3 mph21%30.09 "Hg10 mi
7:00 PM57 °FClear.2 mph13%30.09 "Hg10 mi
6:00 PM59 °FClear.3 mph12%30.07 "Hg10 mi
5:10 PM64 °FPassing clouds.6 mph8%30.07 "HgN/A
4:00 PM64 °FPassing clouds.7 mph9%30.07 "HgN/A
3:00 PM64 °FPassing clouds.6 mph10%30.07 "HgN/A
2:00 PM63 °FPassing clouds.6 mph11%30.09 "HgN/A
1:00 PM61 °FPassing clouds.8 mph11%30.12 "HgN/A
12:00 PM59 °FPassing clouds.12 mph12%30.15 "HgN/A
11:00 AM57 °FPassing clouds.12 mph13%30.18 "HgN/A
10:00 AM54 °FSunny.6 mph18%30.18 "Hg10 mi
9:00 AM45 °FSunny.6 mph25%30.18 "Hg10 mi
8:00 AM36 °FSunny.3 mph35%30.15 "Hg10 mi
7:00 AM30 °FPassing clouds.5 mph47%30.15 "HgN/A
6:00 AM30 °FSunny.2 mph47%30.12 "Hg10 mi
5:00 AM32 °FClear.2 mph40%30.09 "Hg10 mi
4:00 AM36 °FClear.6 mph32%30.09 "Hg10 mi
3:00 AM34 °FPassing clouds.3 mph38%30.09 "HgN/A
2:00 AM37 °FClear.3 mph30%30.12 "Hg10 mi
1:00 AM39 °FClear.2 mph26%30.12 "Hg10 mi
12:00 AM50 °FClear.9 mph14%30.12 "Hg10 mi
11:00 PM
Tue, Jul 26
50 °FClear.12 mph14%30.09 "Hg10 mi
Weather by CustomWeather, © 2016

See weather overviewHow to use our weather pages